Pomona, MO

2:06 AM CDT on September 26, 2016 (GMT -0500)
West Plains Municipal

Weather History for KUNO - January, 2014

Change the Weather History Date:

Wednesday, January 29, 2014

  Actual Average Record
Temperature  
Mean Temperature 19 °F 35 °F  
Max Temperature 36 °F 46 °F 74 °F (2002)
Min Temperature 2 °F 24 °F -4 °F (1966)
Degree Days  
Heating Degree Days 46 30  
Month to date heating degree days 1034 897  
Since 1 July heating degree days 2791 2642  
Cooling Degree Days 0 0  
Month to date cooling degree days 0 0  
Year to date cooling degree days 0 0  
Moisture  
Dew Point 2 °F    
Average Humidity 52    
Maximum Humidity 79    
Minimum Humidity 25    
Precipitation  
Precipitation 0.00 in 0.12 in 3.52 in (1969)
Month to date precipitation 1.57 2.43  
Year to date precipitation 1.57 2.43  
Sea Level Pressure  
Sea Level Pressure 30.31 in    
Wind  
Wind Speed 5 mph (SSW)    
Max Wind Speed 16 mph    
Max Gust Speed 22 mph    
Visibility 10 miles    
Events      
T = Trace of Precipitation, MM = Missing Value Source: NWS Daily Summary

Daily Weather History Graph

Daily Weather History Graph

Search for Another Location

Airport or City:

Trip Planner

Search our weather history database for the weather conditions in past years. The results will help you decide how hot, cold, wet, or windy it might be!

Date:

Astronomy

Jan. 29, 2014 Rise Set
Actual Time 7:12 AM CST 5:29 PM CST
Civil Twilight 6:44 AM CST 5:57 PM CST
Nautical Twilight 6:13 AM CST 6:28 PM CST
Astronomical Twilight 5:43 AM CST 6:59 PM CST
Moon 5:49 AM CST (1/29) 4:29 PM CST (1/29)
Length of Visible Light 11h 12m
Length of Day
10h 17m
Waning Crescent, 2% of the Moon is Illuminated
Jan 29
Waning Crescent
Jan 30
New
Feb 6
First Quarter
Feb 14
Full
Feb 22
Last Quarter

Hourly Weather History & Observations

Time (CST) Temp. Windchill Dew Point Humidity Pressure Visibility Wind Dir Wind Speed Gust Speed Precip Events Conditions
12:53 AM 8.1 °F - -2.0 °F 64% 30.40 in 10.0 mi Calm Calm - N/A   Clear
1:53 AM 7.0 °F - -2.0 °F 67% 30.38 in 10.0 mi Calm Calm - N/A   Partly Cloudy
2:53 AM 7.0 °F - -0.9 °F 70% 30.38 in 10.0 mi Calm Calm - N/A   Scattered Clouds
3:53 AM 8.1 °F - -2.0 °F 64% 30.39 in 10.0 mi Calm Calm - N/A   Clear
4:53 AM 7.0 °F - -2.0 °F 67% 30.39 in 10.0 mi Calm Calm - N/A   Clear
5:53 AM 3.9 °F - -2.9 °F 73% 30.39 in 10.0 mi Calm Calm - N/A   Clear
6:53 AM 3.0 °F - -2.9 °F 76% 30.39 in 10.0 mi Calm Calm - N/A   Clear
7:53 AM 8.1 °F - 1.0 °F 73% 30.39 in 10.0 mi Calm Calm - N/A   Clear
8:53 AM 18.0 °F 9.8 °F -0.9 °F 44% 30.38 in 10.0 mi South 5.8 mph - N/A   Clear
9:53 AM 21.0 °F 11.4 °F 1.0 °F 42% 30.39 in 10.0 mi West 8.1 mph - N/A   Clear
10:53 AM 25.0 °F 18.1 °F 1.9 °F 37% 30.40 in 10.0 mi Variable 5.8 mph - N/A   Clear
11:53 AM 30.0 °F 25.2 °F 1.0 °F 29% 30.37 in 10.0 mi Variable 4.6 mph - N/A   Clear
12:53 PM 33.1 °F 24.9 °F 1.9 °F 27% 30.34 in 10.0 mi SW 10.4 mph - N/A   Clear
1:53 PM 34.0 °F 26.0 °F 6.1 °F 31% 30.32 in 10.0 mi WSW 10.4 mph 21.9 mph N/A   Clear
2:53 PM 35.1 °F 30.1 °F 6.1 °F 30% 30.28 in 10.0 mi SW 5.8 mph - N/A   Clear
3:53 PM 36.0 °F 29.0 °F 3.9 °F 26% 30.26 in 10.0 mi SSW 9.2 mph - N/A   Clear
4:53 PM 35.1 °F 28.6 °F 5.0 °F 28% 30.25 in 10.0 mi SSW 8.1 mph - N/A   Clear
5:53 PM 30.0 °F 25.2 °F 6.1 °F 36% 30.25 in 10.0 mi South 4.6 mph - N/A   Clear
6:53 PM 30.0 °F 23.2 °F 6.1 °F 36% 30.24 in 10.0 mi South 6.9 mph - N/A   Clear
7:53 PM 28.9 °F 20.4 °F 5.0 °F 36% 30.23 in 10.0 mi South 9.2 mph - N/A   Clear
8:53 PM 28.0 °F 19.3 °F 3.9 °F 36% 30.21 in 10.0 mi South 9.2 mph - N/A   Clear
9:53 PM 27.0 °F 18.0 °F 5.0 °F 39% 30.19 in 10.0 mi South 9.2 mph - N/A   Clear
10:53 PM 24.1 °F 14.4 °F 5.0 °F 44% 30.18 in 10.0 mi South 9.2 mph - N/A   Clear
11:53 PM 23.0 °F 13.1 °F 7.0 °F 50% 30.15 in 10.0 mi South 9.2 mph - N/A   Clear